STARLINK-4610, 53610

Orbit data source: Space-Track

STARLINK-4610, 53610 is a payload satellite owned by SpaceX/Seattle (US) in LEO that was launched on Sun, 28 Aug 2022 UTC via an FALCON 9 launch vehicle from the Air Force Eastern Test Range (AFETR). Payload-class satellites include a variety of spacecraft equipped with specific instruments for various scientific and technological missions. These include communications satellites like Starlink; space stations such as the ISS; scientific satellites like the Hubble; Earth observation satellites from companies like Planet Labs, Umbra, and HawkEye 360; GPS; miniature CubeSats for education and research; and military/defense satellites.

Loading next visibility...
Identifier
53610, 2022-104Y
Orbit
LEO
Country
Flag of USUS
Related business
Manufacturer
SpaceX/Seattle
Mission
Operational Commercial Communications
Bus & Motor
STARLINK, Unknown motor
Mass
300 kg wet, ~290 kg dry
Launch date (UTC)
2022-08-28 (3 years ago)
Launch vehicle
FALCON 9
Launch site
Air Force Eastern Test Range (AFETR)
Object type
Payload
Rocket body
Debris
Shape & HBR
Box + 1 Pan, 10.1 m
Radar Cross Section
13.562 m², Large (>1 m²)

Expand to show TLE details & history
Last TLE update: 9 hours ago

TLE from 9 hours ago
0 STARLINK-4610
1 53610U 22104Y   25349.89851690  .00000608  00000-0  56322-4 0  9999
2 53610  53.2170 250.3965 0001594  86.6334 273.4840 15.08830192182987
Epoch: 2025-12-15T21:33Z
TLE epoch observation values (Epoch: 2025-12-15T21:33:51.860Z)
Latitude
-0.00004°
Longitude
-157.86009°
Altitude
540.604 km
Speed
7.593 km/s
True Right ascension
16h 41m 35s
True Declination
0° 00' 00"
Sunlit
Object was in daylight at epoch
Visualization orbit readout
Latitude
Unknown
Longitude
Unknown
Altitude
Unknown
Speed
Unknown
Apparent Right ascension
Unknown
Apparent Declination
Unknown
Sunlit
N/A
Visualization observer readout
Local Sidereal Time
05:02:44
Azimuth
Unknown
Elevation
Unknown
Doppler factor
Unknown
Orbital elements
Apogee altitude
541.121 km
Perigee altitude
538.916 km
Semi-major axis
6,918.155 km
Eccentricity
0.00016
Inclination
53.217°
RAAN
250.3965°
Arg. of periapsis
86.6334°
True anomaly
273.46577°
Mean anomaly
273.484°
Eccentric anomaly
273.47488°
Mean motion
3.77188 °/min
Orbital period
95.44 mins
BSTAR
0.000056322
Loading maneuver chart data...
Computing Atmospheric mass density...
Loading historical data...
Loading historical data...
Loading historical data...
Loading historical data...
Loading historical data...
Loading historical data...
Loading historical data...

Documentation

Showing up to 5 results
|